CES826 ZGGG-ZULS

Flight info

Callsign CES826
Flight time 3h 37m
Altitude 34100
Route K0928S1040 AGVIL9 AGVIL W24 OSNOV G586 QP B330 ELKAL W179 IGNAK/K0917S1070 W179 WFX/K0922S1040 B213 LXA DCT
Aircraft B77W/H-SDE1E2E3FGHIJ2J3J4J5M1RWXY/LB1D1

Departure

Time 2026-04-20 02:54
Airport Guangzhou Baiyun International Airport (ZGGG)

Arrival

Time 2026-04-20 06:32
Airport Lhasa Gonggar International Airport (ZULS)
Time Latitude Longitude Altitude Speed Heading
2026-04-20 02:26 23.42170 113.29945 63 ft 0 kts 104°
2026-04-20 02:42 23.42170 113.29941 63 ft 2 kts 104°
2026-04-20 02:42 23.42175 113.29922 54 ft 3 kts 104°
2026-04-20 02:42 23.42180 113.29901 57 ft 3 kts 104°
2026-04-20 02:42 23.42184 113.29881 58 ft 2 kts 104°
2026-04-20 02:43 23.42187 113.29867 55 ft 3 kts 79°
2026-04-20 02:43 23.42187 113.29866 56 ft 1 kts 71°
2026-04-20 02:45 23.42190 113.29876 54 ft 9 kts 79°
2026-04-20 02:45 23.42158 113.29913 58 ft 6 kts 189°
2026-04-20 02:45 23.42121 113.29869 54 ft 12 kts 233°
2026-04-20 02:45 23.42050 113.29818 56 ft 13 kts 202°
2026-04-20 02:46 23.41941 113.29783 61 ft 19 kts 194°
2026-04-20 02:46 23.41813 113.29747 56 ft 19 kts 194°
2026-04-20 02:46 23.41684 113.29712 56 ft 19 kts 194°
2026-04-20 02:46 23.41555 113.29678 55 ft 19 kts 193°
2026-04-20 02:47 23.41426 113.29644 56 ft 19 kts 194°
2026-04-20 02:47 23.41298 113.29608 59 ft 19 kts 194°
2026-04-20 02:47 23.41169 113.29573 58 ft 19 kts 194°
2026-04-20 02:47 23.41076 113.29549 59 ft 0 kts 194°
2026-04-20 02:48 23.41068 113.29546 59 ft 2 kts 194°
2026-04-20 02:48 23.41021 113.29534 56 ft 15 kts 194°
2026-04-20 02:48 23.40912 113.29505 59 ft 16 kts 194°
2026-04-20 02:48 23.40797 113.29473 57 ft 17 kts 194°
2026-04-20 02:49 23.40709 113.29460 59 ft 12 kts 161°
2026-04-20 02:49 23.40660 113.29560 60 ft 23 kts 105°
2026-04-20 02:49 23.40610 113.29781 59 ft 31 kts 104°
2026-04-20 02:49 23.40561 113.29995 61 ft 29 kts 104°
2026-04-20 02:50 23.40513 113.30205 59 ft 29 kts 104°
2026-04-20 02:50 23.40465 113.30416 63 ft 29 kts 104°
2026-04-20 02:50 23.40417 113.30625 54 ft 29 kts 104°
2026-04-20 02:50 23.40369 113.30835 61 ft 29 kts 103°
2026-04-20 02:51 23.40332 113.30998 55 ft 14 kts 104°
2026-04-20 02:51 23.40356 113.31084 56 ft 13 kts 30°
2026-04-20 02:51 23.40419 113.31103 56 ft 16 kts 14°
2026-04-20 02:51 23.40572 113.31144 59 ft 25 kts 14°
2026-04-20 02:52 23.40794 113.31204 56 ft 24 kts 14°
2026-04-20 02:52 23.40864 113.31223 58 ft 12 kts 14°
2026-04-20 02:52 23.40913 113.31278 57 ft 10 kts 83°
2026-04-20 02:52 23.40900 113.31355 58 ft 11 kts 103°
2026-04-20 02:53 23.40850 113.31418 55 ft 11 kts 164°
2026-04-20 02:53 23.40765 113.31402 55 ft 19 kts 195°
2026-04-20 02:53 23.40374 113.31293 58 ft 105 kts 194°
2026-04-20 02:53 23.39386 113.31037 67 ft 182 kts 192°
2026-04-20 02:54 23.38052 113.30706 594 ft 206 kts 193°
2026-04-20 02:54 23.36661 113.30312 1585 ft 203 kts 193°
2026-04-20 02:54 23.35292 113.29930 2587 ft 206 kts 193°
2026-04-20 02:54 23.33807 113.29521 3060 ft 234 kts 192°
2026-04-20 02:55 23.32184 113.29081 3844 ft 247 kts 193°
2026-04-20 02:55 23.30489 113.28622 4793 ft 255 kts 193°
2026-04-20 02:55 23.28721 113.28341 5724 ft 260 kts 182°
2026-04-20 02:55 23.26917 113.28332 6711 ft 265 kts 179°
2026-04-20 02:56 23.25029 113.28357 7692 ft 270 kts 180°
2026-04-20 02:56 23.23128 113.28375 8656 ft 275 kts 181°
2026-04-20 02:56 23.21192 113.28375 9633 ft 282 kts 182°
2026-04-20 02:56 23.19236 113.28362 10466 ft 290 kts 183°
2026-04-20 02:57 23.17164 113.28116 10868 ft 315 kts 193°
2026-04-20 02:57 23.14962 113.27472 11060 ft 341 kts 205°
2026-04-20 02:57 23.13028 113.25864 11466 ft 362 kts 231°
2026-04-20 02:57 23.11818 113.23440 12411 ft 372 kts 252°
2026-04-20 02:58 23.11537 113.20635 13541 ft 379 kts 274°
2026-04-20 02:58 23.12020 113.17823 14389 ft 384 kts 281°
2026-04-20 02:58 23.12629 113.14972 15220 ft 388 kts 283°
2026-04-20 02:58 23.13738 113.12257 15901 ft 404 kts 303°
2026-04-20 02:59 23.15714 113.10055 16886 ft 413 kts 321°
2026-04-20 02:59 23.18253 113.08551 17937 ft 421 kts 336°
2026-04-20 02:59 23.21143 113.07882 18761 ft 429 kts 355°
2026-04-20 02:59 23.24166 113.07893 19381 ft 440 kts 359°
2026-04-20 03:00 23.27254 113.07983 20068 ft 447 kts 358°
2026-04-20 03:00 23.30380 113.08030 20875 ft 451 kts 357°
2026-04-20 03:00 23.33532 113.08031 21673 ft 456 kts 357°
2026-04-20 03:00 23.36722 113.08013 22445 ft 461 kts 356°
2026-04-20 03:01 23.39947 113.07998 23184 ft 466 kts 356°
2026-04-20 03:01 23.43209 113.07987 23828 ft 472 kts 356°
2026-04-20 03:01 23.46508 113.07979 24424 ft 476 kts 356°
2026-04-20 03:01 23.49829 113.07971 25035 ft 479 kts 356°
2026-04-20 03:02 23.53169 113.07958 25642 ft 482 kts 356°
2026-04-20 03:02 23.56537 113.07932 26225 ft 486 kts 356°
2026-04-20 03:02 23.59927 113.07900 26788 ft 490 kts 355°
2026-04-20 03:02 23.63350 113.07869 27338 ft 493 kts 355°
2026-04-20 03:03 23.66795 113.07841 27893 ft 497 kts 355°
2026-04-20 03:03 23.70193 113.07641 28319 ft 495 kts 347°
2026-04-20 03:03 23.73448 113.06547 28712 ft 486 kts 331°
2026-04-20 03:03 23.76511 113.04935 29083 ft 490 kts 330°
2026-04-20 03:04 23.79590 113.03295 29519 ft 494 kts 330°
2026-04-20 03:04 23.82696 113.01676 29996 ft 496 kts 330°
2026-04-20 03:04 23.85841 113.00079 30456 ft 497 kts 331°
2026-04-20 03:04 23.88985 112.98513 30989 ft 496 kts 332°
2026-04-20 03:05 23.92119 112.96967 31577 ft 493 kts 332°
2026-04-20 03:05 23.95239 112.95433 32167 ft 490 kts 331°
2026-04-20 03:05 23.98344 112.93904 32736 ft 489 kts 331°
2026-04-20 03:05 24.01437 112.92376 33289 ft 487 kts 331°
2026-04-20 03:06 24.04517 112.90851 33839 ft 485 kts 331°
2026-04-20 03:06 24.07584 112.89330 34329 ft 483 kts 331°
2026-04-20 03:06 24.10645 112.87811 34762 ft 483 kts 331°
2026-04-20 03:06 24.13706 112.86292 35178 ft 483 kts 331°
2026-04-20 03:07 24.16790 112.84841 35608 ft 484 kts 335°
2026-04-20 03:07 24.19994 112.83675 36036 ft 486 kts 339°
2026-04-20 03:07 24.23253 112.82669 36433 ft 486 kts 340°
2026-04-20 03:07 24.26510 112.81695 36823 ft 486 kts 340°
2026-04-20 03:08 24.29762 112.80688 37156 ft 485 kts 339°
2026-04-20 03:08 24.33000 112.79639 37523 ft 484 kts 338°
2026-04-20 03:08 24.36221 112.78566 37918 ft 483 kts 338°
2026-04-20 03:08 24.39397 112.77502 38305 ft 482 kts 338°
2026-04-20 03:09 24.42578 112.76384 38636 ft 476 kts 333°
2026-04-20 03:09 24.45402 112.74584 38815 ft 466 kts 315°
2026-04-20 03:09 24.47543 112.71987 39154 ft 454 kts 300°
2026-04-20 03:09 24.49050 112.68990 39588 ft 445 kts 290°
2026-04-20 03:10 24.49984 112.65784 39902 ft 438 kts 277°
2026-04-20 03:10 24.50334 112.62465 40021 ft 439 kts 275°
2026-04-20 03:10 24.50621 112.59110 40058 ft 443 kts 274°
2026-04-20 03:11 24.51186 112.52365 40069 ft 443 kts 274°
2026-04-20 03:11 24.51795 112.45673 40076 ft 438 kts 275°
2026-04-20 03:12 24.52425 112.39045 40071 ft 435 kts 275°
2026-04-20 03:12 24.53059 112.32450 40070 ft 434 kts 275°
2026-04-20 03:13 24.53690 112.25871 40067 ft 433 kts 275°
2026-04-20 03:13 24.54316 112.19277 40066 ft 436 kts 275°
2026-04-20 03:14 24.54944 112.12639 40091 ft 438 kts 275°
2026-04-20 03:14 24.55570 112.05975 40074 ft 439 kts 275°
2026-04-20 03:15 24.56196 111.99291 40067 ft 440 kts 275°
2026-04-20 03:15 24.56819 111.92609 40066 ft 440 kts 275°
2026-04-20 03:16 24.57439 111.85926 40061 ft 439 kts 275°
2026-04-20 03:16 24.58054 111.79264 40057 ft 438 kts 275°
2026-04-20 03:17 24.58660 111.72669 40055 ft 436 kts 275°
2026-04-20 03:17 24.59265 111.66048 40062 ft 435 kts 275°
2026-04-20 03:18 24.59868 111.59428 40045 ft 435 kts 275°
2026-04-20 03:18 24.60466 111.52827 40048 ft 434 kts 275°
2026-04-20 03:19 24.61060 111.46226 40053 ft 434 kts 275°
2026-04-20 03:19 24.61651 111.39621 40047 ft 435 kts 275°
2026-04-20 03:20 24.62242 111.33010 40049 ft 435 kts 275°
2026-04-20 03:20 24.62828 111.26380 40041 ft 436 kts 275°
2026-04-20 03:21 24.63405 111.19746 40044 ft 436 kts 275°
2026-04-20 03:21 24.63980 111.13105 40039 ft 436 kts 274°
2026-04-20 03:22 24.64553 111.06460 40033 ft 437 kts 274°
2026-04-20 03:22 24.65124 110.99801 40039 ft 437 kts 274°
2026-04-20 03:23 24.65696 110.93151 40039 ft 437 kts 274°
2026-04-20 03:23 24.66257 110.86495 40035 ft 437 kts 274°
2026-04-20 03:24 24.67307 110.79936 40026 ft 439 kts 289°
2026-04-20 03:24 24.70329 110.74114 40034 ft 447 kts 306°
2026-04-20 03:25 24.74789 110.69300 40024 ft 451 kts 313°
2026-04-20 03:25 24.79426 110.64561 40040 ft 453 kts 313°
2026-04-20 03:26 24.84013 110.59779 40023 ft 455 kts 312°
2026-04-20 03:26 24.88558 110.54982 40015 ft 456 kts 312°
2026-04-20 03:27 24.93134 110.50142 40021 ft 456 kts 312°
2026-04-20 03:27 24.97708 110.45297 40018 ft 456 kts 312°
2026-04-20 03:28 25.02294 110.40438 40010 ft 458 kts 312°
2026-04-20 03:28 25.09203 110.33150 40004 ft 458 kts 312°
2026-04-20 03:29 25.13803 110.28291 40020 ft 458 kts 312°
2026-04-20 03:29 25.18408 110.23417 40008 ft 459 kts 312°
2026-04-20 03:30 25.23026 110.18546 40009 ft 459 kts 313°
2026-04-20 03:30 25.27667 110.13695 40021 ft 459 kts 313°
2026-04-20 03:31 25.32309 110.08841 40022 ft 460 kts 313°
2026-04-20 03:31 25.36962 110.03965 40004 ft 461 kts 313°
2026-04-20 03:32 25.41614 109.99083 39996 ft 460 kts 313°
2026-04-20 03:32 25.46214 109.94246 40018 ft 460 kts 313°
2026-04-20 03:33 25.50849 109.89368 40019 ft 460 kts 313°
2026-04-20 03:33 25.55487 109.84482 40012 ft 461 kts 313°
2026-04-20 03:34 25.60130 109.79585 40004 ft 460 kts 313°
2026-04-20 03:34 25.64781 109.74670 39982 ft 463 kts 313°
2026-04-20 03:35 25.69433 109.69756 40002 ft 461 kts 313°
2026-04-20 03:35 25.74055 109.64852 39998 ft 458 kts 311°
2026-04-20 03:36 25.77721 109.59213 40010 ft 448 kts 295°
2026-04-20 03:36 25.79983 109.52819 40012 ft 444 kts 284°
2026-04-20 03:37 25.81661 109.46230 40016 ft 444 kts 284°
2026-04-20 03:37 25.83353 109.39603 39996 ft 448 kts 284°
2026-04-20 03:38 25.85076 109.32994 40013 ft 449 kts 284°
2026-04-20 03:38 25.86825 109.26334 40007 ft 450 kts 284°
2026-04-20 03:39 25.88571 109.19667 40022 ft 449 kts 284°
2026-04-20 03:39 25.90030 109.14083 40014 ft 449 kts 284°
2026-04-20 03:40 25.92047 109.06345 40023 ft 449 kts 284°
2026-04-20 03:40 25.93492 109.00822 39998 ft 444 kts 284°
2026-04-20 03:41 25.95233 108.94248 40018 ft 444 kts 284°
2026-04-20 03:41 25.96976 108.87645 40020 ft 446 kts 284°
2026-04-20 03:42 25.98720 108.81011 40030 ft 448 kts 284°
2026-04-20 03:42 26.00466 108.74361 40034 ft 449 kts 284°
2026-04-20 03:43 26.02233 108.67687 40033 ft 450 kts 285°
2026-04-20 03:43 26.04025 108.61010 40031 ft 451 kts 285°
2026-04-20 03:44 26.05812 108.54327 40035 ft 451 kts 284°
2026-04-20 03:44 26.07594 108.47633 40036 ft 451 kts 284°
2026-04-20 03:45 26.09391 108.40958 40040 ft 451 kts 287°
2026-04-20 03:45 26.11858 108.34545 40052 ft 452 kts 294°
2026-04-20 03:46 26.14603 108.28300 40032 ft 452 kts 294°
2026-04-20 03:46 26.17350 108.22004 40026 ft 452 kts 293°
2026-04-20 03:47 26.20082 108.15686 40015 ft 454 kts 293°
2026-04-20 03:47 26.22816 108.09332 40056 ft 459 kts 293°
2026-04-20 03:48 26.25563 108.02946 39985 ft 450 kts 293°
2026-04-20 03:48 26.28245 107.96700 40036 ft 447 kts 293°
2026-04-20 03:49 26.30926 107.90441 40050 ft 448 kts 293°
2026-04-20 03:49 26.33616 107.84156 40067 ft 450 kts 293°
2026-04-20 03:50 26.36319 107.77831 40051 ft 453 kts 293°
2026-04-20 03:50 26.39027 107.71483 40050 ft 453 kts 294°
2026-04-20 03:51 26.41734 107.65133 40047 ft 453 kts 294°
2026-04-20 03:51 26.44435 107.58783 40051 ft 452 kts 293°
2026-04-20 03:52 26.47128 107.52446 40056 ft 451 kts 293°
2026-04-20 03:52 26.49828 107.46130 40074 ft 451 kts 294°
2026-04-20 03:53 26.52544 107.39809 40061 ft 451 kts 294°
2026-04-20 03:53 26.55240 107.33503 40059 ft 449 kts 294°
2026-04-20 03:54 26.57873 107.27245 40063 ft 447 kts 294°
2026-04-20 03:54 26.60507 107.20959 40062 ft 446 kts 294°
2026-04-20 03:55 26.63139 107.14688 40069 ft 446 kts 294°
2026-04-20 03:55 26.65792 107.08439 40083 ft 445 kts 294°
2026-04-20 03:56 26.68450 107.02189 40091 ft 445 kts 295°
2026-04-20 03:56 26.71109 106.95934 40083 ft 445 kts 295°
2026-04-20 03:57 26.73763 106.89677 40067 ft 445 kts 295°
2026-04-20 03:57 26.76416 106.83415 40079 ft 445 kts 295°
2026-04-20 03:58 26.79789 106.77607 40089 ft 447 kts 307°
2026-04-20 03:58 26.84097 106.72566 40081 ft 450 kts 316°
2026-04-20 03:59 26.88837 106.67977 40091 ft 450 kts 317°
2026-04-20 03:59 26.93573 106.63410 40082 ft 449 kts 316°
2026-04-20 04:00 26.98269 106.58821 40082 ft 447 kts 316°
2026-04-20 04:00 27.02935 106.54232 40082 ft 445 kts 316°
2026-04-20 04:01 27.07578 106.49659 40084 ft 444 kts 316°
2026-04-20 04:01 27.12217 106.45086 40090 ft 444 kts 316°
2026-04-20 04:02 27.16841 106.40524 40084 ft 446 kts 316°
2026-04-20 04:02 27.21516 106.35923 40094 ft 448 kts 316°
2026-04-20 04:03 27.26218 106.31346 40550 ft 445 kts 316°
2026-04-20 04:03 27.28557 106.29078 40822 ft 445 kts 316°
2026-04-20 04:03 27.30907 106.26796 40786 ft 447 kts 316°
2026-04-20 04:04 27.35596 106.22236 40792 ft 443 kts 316°
2026-04-20 04:04 27.40242 106.17706 40807 ft 441 kts 316°
2026-04-20 04:05 27.44868 106.13188 40807 ft 440 kts 316°
2026-04-20 04:05 27.49484 106.08674 40820 ft 439 kts 316°
2026-04-20 04:06 27.54100 106.04155 40828 ft 440 kts 316°
2026-04-20 04:06 27.58721 105.99627 40826 ft 441 kts 316°
2026-04-20 04:07 27.63359 105.95077 40833 ft 442 kts 315°
2026-04-20 04:07 27.67989 105.90527 40835 ft 441 kts 316°
2026-04-20 04:08 27.72087 105.85479 40850 ft 435 kts 302°
2026-04-20 04:08 27.74903 105.79460 40853 ft 434 kts 288°
2026-04-20 04:09 27.76696 105.72947 40852 ft 435 kts 287°
2026-04-20 04:09 27.78483 105.66416 40847 ft 436 kts 287°
2026-04-20 04:10 27.80428 105.59938 40846 ft 435 kts 292°
2026-04-20 04:10 27.82864 105.53690 40848 ft 434 kts 293°
2026-04-20 04:11 27.85297 105.47462 40852 ft 432 kts 293°
2026-04-20 04:11 27.87685 105.41279 40853 ft 432 kts 293°
2026-04-20 04:12 27.90232 105.35146 40857 ft 431 kts 296°
2026-04-20 04:12 27.92954 105.29116 40846 ft 430 kts 296°
2026-04-20 04:13 27.95649 105.23080 40838 ft 429 kts 296°
2026-04-20 04:13 27.99117 105.17617 40847 ft 431 kts 311°
2026-04-20 04:14 28.03678 105.13199 40840 ft 436 kts 323°
2026-04-20 04:14 28.08864 105.09613 40840 ft 437 kts 325°
2026-04-20 04:15 28.14086 105.06059 40851 ft 438 kts 324°
2026-04-20 04:15 28.19300 105.02445 40827 ft 440 kts 324°
2026-04-20 04:16 28.24511 104.98798 40829 ft 441 kts 324°
2026-04-20 04:16 28.29734 104.95135 40823 ft 442 kts 324°
2026-04-20 04:17 28.34961 104.91468 40818 ft 442 kts 324°
2026-04-20 04:17 28.40184 104.87802 40824 ft 441 kts 324°
2026-04-20 04:18 28.45406 104.84149 40820 ft 440 kts 324°
2026-04-20 04:18 28.50609 104.80507 40818 ft 439 kts 324°
2026-04-20 04:19 28.55808 104.76861 40809 ft 438 kts 324°
2026-04-20 04:19 28.60997 104.73217 40809 ft 438 kts 323°
2026-04-20 04:20 28.66182 104.69571 40809 ft 438 kts 323°
2026-04-20 04:20 28.71332 104.65945 40797 ft 438 kts 323°
2026-04-20 04:21 28.76553 104.62265 40812 ft 439 kts 323°
2026-04-20 04:21 28.81712 104.58624 40822 ft 439 kts 323°
2026-04-20 04:22 28.86898 104.54959 40958 ft 438 kts 323°
2026-04-20 04:22 28.92081 104.51277 40993 ft 440 kts 323°
2026-04-20 04:23 28.97283 104.47574 41002 ft 442 kts 323°
2026-04-20 04:23 29.02508 104.43851 41000 ft 443 kts 323°
2026-04-20 04:24 29.07747 104.40115 41008 ft 445 kts 323°
2026-04-20 04:24 29.12995 104.36368 40999 ft 445 kts 323°
2026-04-20 04:25 29.18243 104.32616 40998 ft 444 kts 323°
2026-04-20 04:25 29.23506 104.28912 40981 ft 445 kts 328°
2026-04-20 04:26 29.26418 104.27645 41003 ft 453 kts 340°
2026-04-20 04:26 29.29540 104.26995 41003 ft 460 kts 348°
2026-04-20 04:26 29.32766 104.26952 40980 ft 469 kts
2026-04-20 04:26 29.36015 104.27458 41033 ft 472 kts
2026-04-20 04:27 29.42517 104.28678 40998 ft 475 kts
2026-04-20 04:27 29.47942 104.29685 40997 ft 475 kts
2026-04-20 04:28 29.54488 104.30833 41004 ft 476 kts
2026-04-20 04:28 29.61052 104.31950 41001 ft 477 kts
2026-04-20 04:29 29.67632 104.33066 41003 ft 479 kts
2026-04-20 04:29 29.74228 104.34192 40997 ft 479 kts
2026-04-20 04:30 29.80820 104.35320 40996 ft 479 kts
2026-04-20 04:30 29.87410 104.36448 40996 ft 478 kts
2026-04-20 04:31 29.93990 104.37577 40994 ft 478 kts
2026-04-20 04:31 30.00530 104.38699 40994 ft 478 kts
2026-04-20 04:32 30.07110 104.39830 40992 ft 478 kts
2026-04-20 04:32 30.13690 104.40963 40997 ft 478 kts
2026-04-20 04:33 30.20265 104.42105 41003 ft 478 kts
2026-04-20 04:33 30.26858 104.43259 40996 ft 479 kts
2026-04-20 04:34 30.33449 104.44414 40994 ft 479 kts
2026-04-20 04:34 30.40051 104.45571 40994 ft 480 kts
2026-04-20 04:35 30.46655 104.46708 40986 ft 476 kts 359°
2026-04-20 04:35 30.49900 104.46561 40990 ft 460 kts 341°
2026-04-20 04:35 30.52850 104.45329 40992 ft 446 kts 325°
2026-04-20 04:36 30.57195 104.40510 41005 ft 432 kts 298°
2026-04-20 04:36 30.58586 104.37417 41003 ft 432 kts 290°
2026-04-20 04:37 30.59736 104.30656 40995 ft 432 kts 265°
2026-04-20 04:37 30.59079 104.23701 40998 ft 435 kts 265°
2026-04-20 04:38 30.58615 104.16700 41000 ft 435 kts 267°
2026-04-20 04:38 30.58231 104.09740 40993 ft 434 kts 267°
2026-04-20 04:39 30.57817 104.02759 40990 ft 432 kts 267°
2026-04-20 04:39 30.57795 103.95818 40995 ft 429 kts 276°
2026-04-20 04:40 30.58778 103.88997 40995 ft 428 kts 283°
2026-04-20 04:40 30.60590 103.82417 41003 ft 427 kts 287°
2026-04-20 04:41 30.62483 103.75881 40994 ft 427 kts 287°
2026-04-20 04:41 30.64325 103.69338 40995 ft 426 kts 286°
2026-04-20 04:42 30.66018 103.62757 41000 ft 425 kts 284°
2026-04-20 04:42 30.67583 103.56135 41005 ft 425 kts 284°
2026-04-20 04:43 30.69159 103.49506 41024 ft 426 kts 284°
2026-04-20 04:43 30.70753 103.42874 41017 ft 426 kts 284°
2026-04-20 04:44 30.72347 103.36250 41007 ft 425 kts 284°
2026-04-20 04:44 30.73935 103.29643 41036 ft 423 kts 284°
2026-04-20 04:45 30.75514 103.23055 41027 ft 423 kts 284°
2026-04-20 04:45 30.77090 103.16451 41011 ft 424 kts 284°
2026-04-20 04:46 30.78659 103.09883 41036 ft 427 kts 284°
2026-04-20 04:46 30.80035 103.03173 41034 ft 427 kts 278°
2026-04-20 04:47 30.80548 102.96289 40996 ft 427 kts 270°
2026-04-20 04:47 30.80421 102.89406 41005 ft 424 kts 269°
2026-04-20 04:48 30.80268 102.82563 41017 ft 423 kts 270°
2026-04-20 04:48 30.80136 102.75728 40986 ft 422 kts 270°
2026-04-20 04:49 30.80008 102.68906 40967 ft 422 kts 270°
2026-04-20 04:49 30.79876 102.62070 40963 ft 423 kts 269°
2026-04-20 04:50 30.79743 102.55247 40952 ft 422 kts 270°
2026-04-20 04:50 30.79607 102.48469 40978 ft 423 kts 270°
2026-04-20 04:51 30.79466 102.41626 40954 ft 423 kts 270°
2026-04-20 04:51 30.79323 102.34791 40908 ft 423 kts 269°
2026-04-20 04:52 30.79175 102.27946 40895 ft 424 kts 270°
2026-04-20 04:52 30.79024 102.21074 40899 ft 426 kts 269°
2026-04-20 04:53 30.78868 102.14196 40863 ft 425 kts 270°
2026-04-20 04:53 30.78700 102.07347 40893 ft 420 kts 269°
2026-04-20 04:54 30.78545 102.00538 40875 ft 423 kts 269°
2026-04-20 04:54 30.78385 101.93676 40865 ft 426 kts 269°
2026-04-20 04:55 30.78548 101.86849 40904 ft 418 kts 276°
2026-04-20 04:55 30.79138 101.80102 40871 ft 421 kts 276°
2026-04-20 04:56 30.79718 101.73286 40827 ft 424 kts 276°
2026-04-20 04:56 30.80291 101.66508 40887 ft 420 kts 275°
2026-04-20 04:57 30.80836 101.59707 40843 ft 424 kts 275°
2026-04-20 04:57 30.81388 101.52864 40843 ft 426 kts 275°
2026-04-20 04:58 30.81946 101.46027 40817 ft 423 kts 275°
2026-04-20 04:58 30.82498 101.39222 40813 ft 423 kts 275°
2026-04-20 04:59 30.83037 101.32453 40812 ft 423 kts 275°
2026-04-20 04:59 30.83573 101.25646 40772 ft 422 kts 275°
2026-04-20 05:00 30.84111 101.18890 40816 ft 418 kts 275°
2026-04-20 05:00 30.84639 101.12140 40797 ft 420 kts 275°
2026-04-20 05:01 30.85166 101.05405 40783 ft 416 kts 275°
2026-04-20 05:01 30.85677 100.98715 40762 ft 416 kts 275°
2026-04-20 05:02 30.86192 100.91979 40783 ft 420 kts 275°
2026-04-20 05:02 30.86714 100.85171 40757 ft 424 kts 275°
2026-04-20 05:03 30.87231 100.78363 40752 ft 425 kts 275°
2026-04-20 05:03 30.87746 100.71510 40775 ft 425 kts 275°
2026-04-20 05:04 30.88256 100.64654 40769 ft 425 kts 275°
2026-04-20 05:04 30.88763 100.57817 40762 ft 423 kts 275°
2026-04-20 05:05 30.89263 100.51016 40761 ft 420 kts 275°
2026-04-20 05:05 30.89757 100.44259 40761 ft 418 kts 275°
2026-04-20 05:06 30.90245 100.37525 40745 ft 417 kts 275°
2026-04-20 05:06 30.90730 100.30775 40732 ft 420 kts 275°
2026-04-20 05:07 30.91215 100.23980 40766 ft 422 kts 275°
2026-04-20 05:07 30.91700 100.17150 40749 ft 424 kts 274°
2026-04-20 05:08 30.92181 100.10313 40749 ft 423 kts 274°
2026-04-20 05:08 30.92659 100.03479 40766 ft 423 kts 275°
2026-04-20 05:09 30.93151 99.96711 40759 ft 421 kts 275°
2026-04-20 05:09 30.93689 99.89944 40763 ft 418 kts 275°
2026-04-20 05:10 30.94225 99.83217 40776 ft 416 kts 275°
2026-04-20 05:10 30.94754 99.76500 40768 ft 416 kts 275°
2026-04-20 05:11 30.95278 99.69787 40767 ft 416 kts 275°
2026-04-20 05:11 30.95799 99.63069 40774 ft 416 kts 274°
2026-04-20 05:12 30.96316 99.56339 40764 ft 417 kts 274°
2026-04-20 05:12 30.96829 99.49601 40765 ft 417 kts 274°
2026-04-20 05:13 30.97340 99.42859 40761 ft 418 kts 274°
2026-04-20 05:13 30.97846 99.36109 40778 ft 419 kts 274°
2026-04-20 05:14 30.98352 99.29334 40770 ft 419 kts 275°
2026-04-20 05:14 30.98853 99.22571 40700 ft 419 kts 274°
2026-04-20 05:15 30.99349 99.15811 40761 ft 420 kts 274°
2026-04-20 05:15 30.99843 99.09052 40738 ft 422 kts 274°
2026-04-20 05:16 31.00340 99.02225 40704 ft 420 kts 274°
2026-04-20 05:16 31.00825 98.95512 40723 ft 416 kts 274°
2026-04-20 05:17 31.01306 98.88791 40730 ft 417 kts 274°
2026-04-20 05:17 31.01782 98.82017 40732 ft 420 kts 274°
2026-04-20 05:18 31.02266 98.75216 40710 ft 421 kts 273°
2026-04-20 05:18 31.02660 98.69575 40775 ft 420 kts 273°
2026-04-20 05:19 31.03154 98.62756 40708 ft 423 kts 274°
2026-04-20 05:19 31.03767 98.55938 40718 ft 424 kts 276°
2026-04-20 05:20 31.04358 98.49156 40707 ft 417 kts 274°
2026-04-20 05:20 31.04889 98.42464 40736 ft 412 kts 275°
2026-04-20 05:21 31.05424 98.35800 40728 ft 415 kts 274°
2026-04-20 05:21 31.05972 98.29100 40742 ft 415 kts 274°
2026-04-20 05:22 31.06520 98.22392 40742 ft 415 kts 274°
2026-04-20 05:22 31.07064 98.15688 40760 ft 415 kts 275°
2026-04-20 05:23 31.07601 98.09021 40749 ft 417 kts 274°
2026-04-20 05:23 31.08147 98.02263 40762 ft 419 kts 274°
2026-04-20 05:24 31.08693 97.95492 40776 ft 420 kts 274°
2026-04-20 05:24 31.09237 97.88720 40773 ft 419 kts 274°
2026-04-20 05:25 31.09775 97.81960 40768 ft 418 kts 274°
2026-04-20 05:25 31.10307 97.75210 40773 ft 418 kts 274°
2026-04-20 05:26 31.10836 97.68453 40771 ft 418 kts 273°
2026-04-20 05:26 31.11361 97.61693 40756 ft 418 kts 274°
2026-04-20 05:27 31.11879 97.54992 40773 ft 414 kts 274°
2026-04-20 05:27 31.12381 97.48321 40775 ft 413 kts 274°
2026-04-20 05:28 31.12901 97.41595 40754 ft 418 kts 274°
2026-04-20 05:28 31.13419 97.34831 40766 ft 420 kts 274°
2026-04-20 05:29 31.13948 97.28042 40763 ft 420 kts 274°
2026-04-20 05:29 31.14307 97.21215 40762 ft 423 kts 268°
2026-04-20 05:30 31.13834 97.14360 40759 ft 423 kts 263°
2026-04-20 05:30 31.12635 97.07682 40703 ft 417 kts 258°
2026-04-20 05:31 31.11244 97.01188 40739 ft 416 kts 257°
2026-04-20 05:31 31.09769 96.94670 40810 ft 417 kts 257°
2026-04-20 05:32 31.08327 96.88091 40802 ft 419 kts 257°
2026-04-20 05:32 31.06895 96.81490 40839 ft 421 kts 257°
2026-04-20 05:33 31.05466 96.74872 40832 ft 421 kts 257°
2026-04-20 05:33 31.04023 96.68246 40857 ft 420 kts 257°
2026-04-20 05:34 31.02593 96.61694 40828 ft 413 kts 256°
2026-04-20 05:34 31.00476 96.52013 40859 ft 414 kts 257°
2026-04-20 05:35 30.99037 96.45438 40872 ft 422 kts 257°
2026-04-20 05:35 30.97594 96.38845 40866 ft 417 kts 258°
2026-04-20 05:36 30.96211 96.32309 40840 ft 414 kts 257°
2026-04-20 05:36 30.94839 96.25791 40863 ft 416 kts 257°
2026-04-20 05:37 30.93411 96.19241 40886 ft 420 kts 256°
2026-04-20 05:37 30.91983 96.12617 40837 ft 421 kts 257°
2026-04-20 05:38 30.90614 96.06005 40877 ft 419 kts 257°
2026-04-20 05:38 30.89214 95.99421 40886 ft 418 kts 257°
2026-04-20 05:39 30.87802 95.92830 40884 ft 419 kts 257°
2026-04-20 05:39 30.86390 95.86302 40893 ft 418 kts 257°
2026-04-20 05:40 30.84971 95.79747 40896 ft 416 kts 257°
2026-04-20 05:40 30.83561 95.73222 40884 ft 415 kts 257°
2026-04-20 05:41 30.82198 95.66694 40902 ft 415 kts 258°
2026-04-20 05:41 30.80861 95.60163 40923 ft 415 kts 257°
2026-04-20 05:42 30.79524 95.53635 40917 ft 413 kts 258°
2026-04-20 05:42 30.78186 95.47163 40943 ft 411 kts 258°
2026-04-20 05:43 30.76855 95.40717 40960 ft 409 kts 258°
2026-04-20 05:43 30.75514 95.34279 40958 ft 411 kts 258°
2026-04-20 05:44 30.74163 95.27837 40998 ft 414 kts 258°
2026-04-20 05:44 30.72804 95.21327 40982 ft 413 kts 258°
2026-04-20 05:45 30.71445 95.14836 41016 ft 414 kts 257°
2026-04-20 05:45 30.70074 95.08317 41017 ft 416 kts 257°
2026-04-20 05:46 30.68699 95.01800 41024 ft 415 kts 257°
2026-04-20 05:46 30.67320 94.95285 41004 ft 414 kts 258°
2026-04-20 05:47 30.65945 94.88794 40984 ft 414 kts 257°
2026-04-20 05:47 30.64589 94.82307 41067 ft 411 kts 258°
2026-04-20 05:48 30.63214 94.75797 41018 ft 418 kts 257°
2026-04-20 05:48 30.61789 94.69237 41054 ft 421 kts 257°
2026-04-20 05:49 30.60371 94.62671 41044 ft 420 kts 257°
2026-04-20 05:49 30.58979 94.56194 41032 ft 407 kts 257°
2026-04-20 05:50 30.57611 94.49839 41030 ft 405 kts 257°
2026-04-20 05:50 30.56246 94.43518 41015 ft 404 kts 257°
2026-04-20 05:51 30.54879 94.37191 41046 ft 405 kts 257°
2026-04-20 05:51 30.53498 94.30821 40941 ft 408 kts 256°
2026-04-20 05:52 30.52819 94.27687 41163 ft 397 kts 257°
2026-04-20 05:52 30.52134 94.24549 41079 ft 404 kts 257°
2026-04-20 05:52 30.50746 94.18167 41083 ft 409 kts 258°
2026-04-20 05:53 30.49401 94.11688 41053 ft 415 kts 258°
2026-04-20 05:53 30.48066 94.05187 41048 ft 414 kts 257°
2026-04-20 05:54 30.46723 93.98705 41036 ft 413 kts 257°
2026-04-20 05:54 30.45373 93.92234 41048 ft 412 kts 258°
2026-04-20 05:55 30.44023 93.85774 41035 ft 412 kts 258°
2026-04-20 05:55 30.42671 93.79332 41045 ft 411 kts 257°
2026-04-20 05:56 30.41319 93.72881 41007 ft 412 kts 257°
2026-04-20 05:56 30.39954 93.66418 41030 ft 414 kts 257°
2026-04-20 05:57 30.38440 93.60025 41035 ft 415 kts 252°
2026-04-20 05:57 30.36143 93.53855 41034 ft 418 kts 247°
2026-04-20 05:58 30.33660 93.47792 41010 ft 413 kts 247°
2026-04-20 05:58 30.31240 93.41832 41027 ft 408 kts 247°
2026-04-20 05:59 30.28801 93.35852 40987 ft 413 kts 248°
2026-04-20 05:59 30.26344 93.29828 40987 ft 415 kts 247°
2026-04-20 06:00 30.23885 93.23789 40964 ft 415 kts 247°
2026-04-20 06:00 30.21418 93.17757 40948 ft 412 kts 247°
2026-04-20 06:01 30.18962 93.11762 40958 ft 413 kts 247°
2026-04-20 06:01 30.16514 93.05773 40929 ft 411 kts 248°
2026-04-20 06:02 30.14063 92.99802 40940 ft 411 kts 247°
2026-04-20 06:02 30.11603 92.93828 40912 ft 412 kts 247°
2026-04-20 06:03 30.09562 92.88869 40948 ft 411 kts 247°
2026-04-20 06:03 30.06914 92.82450 40842 ft 408 kts 247°
2026-04-20 06:04 30.04504 92.76612 40943 ft 402 kts 247°
2026-04-20 06:04 30.02085 92.70746 40931 ft 407 kts 247°
2026-04-20 06:05 30.00042 92.65825 40929 ft 411 kts 247°
2026-04-20 06:05 29.97559 92.59842 40959 ft 416 kts 247°
2026-04-20 06:06 29.95055 92.53811 40923 ft 415 kts 247°
2026-04-20 06:06 29.92188 92.46923 40931 ft 408 kts 247°
2026-04-20 06:07 29.89720 92.41008 40926 ft 410 kts 247°
2026-04-20 06:07 29.87643 92.36038 40924 ft 412 kts 247°
2026-04-20 06:08 29.85157 92.30095 40932 ft 411 kts 247°
2026-04-20 06:08 29.82675 92.24175 40950 ft 407 kts 248°
2026-04-20 06:09 29.80207 92.18265 40906 ft 411 kts 247°
2026-04-20 06:09 29.77730 92.12368 40899 ft 407 kts 247°
2026-04-20 06:10 29.75282 92.06573 40936 ft 402 kts 247°
2026-04-20 06:10 29.72844 92.00795 40918 ft 401 kts 247°
2026-04-20 06:11 29.70411 91.95023 40875 ft 400 kts 247°
2026-04-20 06:11 29.69204 91.92168 40769 ft 395 kts 247°
2026-04-20 06:11 29.68000 91.89320 40172 ft 395 kts 246°
2026-04-20 06:12 29.66804 91.86486 39516 ft 395 kts 248°
2026-04-20 06:12 29.65602 91.83640 38759 ft 397 kts 247°
2026-04-20 06:12 29.64390 91.80779 37915 ft 398 kts 247°
2026-04-20 06:12 29.63179 91.77930 37199 ft 396 kts 248°
2026-04-20 06:13 29.61969 91.75077 36425 ft 396 kts 248°
2026-04-20 06:13 29.60755 91.72218 35460 ft 400 kts 248°
2026-04-20 06:13 29.59530 91.69331 34453 ft 405 kts 247°
2026-04-20 06:13 29.58292 91.66415 33383 ft 408 kts 246°
2026-04-20 06:14 29.57036 91.63469 32290 ft 413 kts 246°
2026-04-20 06:14 29.55766 91.60485 31279 ft 419 kts 246°
2026-04-20 06:14 29.54476 91.57458 30385 ft 426 kts 246°
2026-04-20 06:14 29.53151 91.54352 29454 ft 440 kts 245°
2026-04-20 06:15 29.51796 91.51179 28496 ft 442 kts 246°
2026-04-20 06:15 29.50452 91.48030 27680 ft 436 kts 246°
2026-04-20 06:15 29.49143 91.44984 27547 ft 416 kts 246°
2026-04-20 06:15 29.47888 91.42068 27370 ft 399 kts 246°
2026-04-20 06:16 29.46700 91.39301 27198 ft 384 kts 246°
2026-04-20 06:16 29.45543 91.36600 27010 ft 370 kts 246°
2026-04-20 06:16 29.44431 91.34003 26886 ft 356 kts 246°
2026-04-20 06:16 29.43357 91.31497 26801 ft 344 kts 246°
2026-04-20 06:17 29.42316 91.29073 26723 ft 332 kts 246°
2026-04-20 06:17 29.41314 91.26741 26655 ft 317 kts 246°
2026-04-20 06:17 29.40370 91.24542 26450 ft 298 kts 247°
2026-04-20 06:17 29.39480 91.22473 26143 ft 283 kts 247°
2026-04-20 06:18 29.38619 91.20469 25847 ft 278 kts 247°
2026-04-20 06:18 29.37768 91.18493 25618 ft 275 kts 246°
2026-04-20 06:18 29.36927 91.16541 25347 ft 271 kts 246°
2026-04-20 06:18 29.35846 91.14848 25420 ft 266 kts 227°
2026-04-20 06:19 29.34233 91.13678 25451 ft 288 kts 210°
2026-04-20 06:19 29.32227 91.13065 25360 ft 310 kts 192°
2026-04-20 06:19 29.30035 91.13254 25001 ft 327 kts 172°
2026-04-20 06:19 29.27977 91.14501 24584 ft 346 kts 142°
2026-04-20 06:20 29.26606 91.16801 24222 ft 359 kts 112°
2026-04-20 06:20 29.26058 91.19585 23892 ft 358 kts 101°
2026-04-20 06:20 29.25682 91.22415 23563 ft 361 kts 100°
2026-04-20 06:20 29.25293 91.25265 23144 ft 363 kts 101°
2026-04-20 06:21 29.24865 91.28100 22751 ft 360 kts 102°
2026-04-20 06:21 29.24405 91.30910 22369 ft 359 kts 102°
2026-04-20 06:21 29.23933 91.33699 22008 ft 354 kts 103°
2026-04-20 06:21 29.23456 91.36461 21653 ft 354 kts 103°
2026-04-20 06:22 29.23130 91.39230 21186 ft 350 kts 86°
2026-04-20 06:22 29.23803 91.41865 20790 ft 342 kts 56°
2026-04-20 06:22 29.25410 91.43666 20603 ft 309 kts 21°
2026-04-20 06:22 29.27371 91.44235 20266 ft 280 kts 348°
2026-04-20 06:23 29.29035 91.43503 20152 ft 249 kts 311°
2026-04-20 06:23 29.29930 91.41849 19822 ft 243 kts 276°
2026-04-20 06:23 29.29976 91.39959 19635 ft 237 kts 275°
2026-04-20 06:23 29.30452 91.38164 19349 ft 239 kts 283°
2026-04-20 06:24 29.30589 91.36277 19044 ft 238 kts 266°
2026-04-20 06:24 29.30505 91.34391 18777 ft 235 kts 266°
2026-04-20 06:24 29.30453 91.32559 18597 ft 229 kts 267°
2026-04-20 06:24 29.30414 91.30719 18201 ft 232 kts 268°
2026-04-20 06:25 29.30382 91.28873 17872 ft 231 kts 268°
2026-04-20 06:25 29.30353 91.27050 17578 ft 226 kts 268°
2026-04-20 06:25 29.30326 91.25275 17262 ft 220 kts 268°
2026-04-20 06:25 29.30301 91.23561 16973 ft 211 kts 267°
2026-04-20 06:26 29.30280 91.21913 16709 ft 204 kts 268°
2026-04-20 06:26 29.30251 91.20270 16211 ft 211 kts 268°
2026-04-20 06:26 29.30219 91.18529 15509 ft 225 kts 268°
2026-04-20 06:26 29.30195 91.16766 15234 ft 217 kts 268°
2026-04-20 06:27 29.30172 91.15084 14959 ft 206 kts 268°
2026-04-20 06:27 29.30151 91.13495 14721 ft 194 kts 266°
2026-04-20 06:27 29.30125 91.11972 14481 ft 187 kts 266°
2026-04-20 06:27 29.30104 91.10502 14284 ft 184 kts 266°
2026-04-20 06:28 29.30086 91.09075 14056 ft 173 kts 265°
2026-04-20 06:28 29.30059 91.07690 13904 ft 176 kts 266°
2026-04-20 06:28 29.30037 91.06298 13687 ft 171 kts 267°
2026-04-20 06:28 29.30015 91.04974 13553 ft 163 kts 266°
2026-04-20 06:29 29.29998 91.03694 13445 ft 160 kts 267°
2026-04-20 06:29 29.29977 91.02412 13288 ft 159 kts 268°
2026-04-20 06:29 29.29957 91.01180 13134 ft 155 kts 269°
2026-04-20 06:29 29.29938 90.99933 12927 ft 156 kts 268°
2026-04-20 06:30 29.29921 90.98703 12649 ft 151 kts 269°
2026-04-20 06:30 29.29898 90.97467 12374 ft 166 kts 268°
2026-04-20 06:30 29.29878 90.96135 12093 ft 164 kts 266°
2026-04-20 06:30 29.29866 90.94855 11819 ft 156 kts 267°
2026-04-20 06:31 29.29846 90.93625 11580 ft 153 kts 265°
2026-04-20 06:31 29.29830 90.92428 11459 ft 141 kts 265°
2026-04-20 06:31 29.29809 90.91444 11457 ft 102 kts 269°
2026-04-20 06:31 29.29800 90.90853 11458 ft 53 kts 269°
2026-04-20 06:32 29.29789 90.90557 11464 ft 30 kts 259°
2026-04-20 06:32 29.29723 90.90357 11454 ft 23 kts 242°
2026-04-20 06:32 29.29655 90.90206 11454 ft 21 kts 246°
2026-04-20 06:32 29.29621 90.90055 11459 ft 17 kts 266°
2026-04-20 06:33 29.29562 90.90003 11454 ft 11 kts 197°
2026-04-20 06:33 29.29497 90.89986 11459 ft 8 kts 185°
2026-04-20 06:33 29.29453 90.89985 11461 ft 5 kts 181°
2026-04-20 06:33 29.29441 90.89984 11458 ft 0 kts 181°